Location: Geyikbay?r?
(36.8756°N, 30.4583°E)
Time: 14:48:55
(UTC+00:00)

Okean-O - Pass Details

Date: 05 August 2024
Orbit: 632 x 634 km, 98.0° (Epoch: 11 September)

Event Time Altitude Azimuth Distance (km) Brightness Sun altitude
Exits shadow 18:14:50 21° 141° (SE) 1,432 3.8 -14.0°
Maximum altitude 18:17:33 50° 74° (ENE) 809 2.9 -14.4°
Drops below altitude 10° 18:21:48 10° 359° (N) 2,026 5.7 -15.1°
Sets 18:24:03 0° 354° (N) 2,938 6.7 -15.5°
